Location: Plainartige
(45.6866°N, 1.7993°E)
Time: 19:05:01
(UTC+00:00)

deb r/b Ablestar - Pass Details

Date: 28 September 2021
Orbit: 843 x 997 km, 67.7° (Epoch: 21 October)

Event Time Altitude Azimuth Distance (km) Brightness Sun altitude
Rises 20:36:41 0° 329° (NNW) 3,413 ? -30.6°
Reaches altitude 10° 20:39:08 10° 331° (NNW) 2,480 ? -30.9°
Enters shadow 20:43:32 55° 345° (NNW) 1,029 ? -31.6°
